Location: Lafig�re
(44.4503°N, 4.0357°E)
Time: 01:54:36
(UTC+00:00)

Transit 4A - Pass Details

Date: 23 January 2021
Orbit: 866 x 979 km, 66.8° (Epoch: 24 February)

Event Time Altitude Azimuth Distance (km) Brightness Sun altitude
Rises 04:07:03 0° 326° (NW) 3,627 - -32.7°
Reaches altitude 10° 04:09:38 10° 324° (NW) 2,663 - -32.2°
Maximum altitude 04:15:47 70° 242° (WSW) 978 - -31.1°
Exits shadow 04:18:23 35° 169° (S) 1,427 8.8 -30.7°
Drops below altitude 10° 04:21:43 10° 160° (SSE) 2,568 10.4 -30.1°
Sets 04:24:10 0° 158° (SSE) 3,489 11.1 -29.6°
